SCP
0 0 0 0 0 0 0 0 0 0 0 0 0 0 0 0 0 0 0 0 0 0 0 0 0 0 0 0 0 0 0 0 0 0 0 0 0 0 0 0 0 0 0 0 0 0 0 0 0 0 0 0 0 0
0 0 0 0 0 0 0 0 0 0 0 0 0 0 0 0 0 0 0 0 0 0 0 0 0 0 0 0 0 0 0 0 0 0 0 0 0 0 0 0 0 0 0 0 0 0 0 0 0 0 0 0 0 0
0 0 0 0 0 0 0 0 0 0 0 0 0 0 0 0 0 0 0 0 0 0 0 0 0 0 0 0 0 0 0 0 0 0 0 0 0 0 0 0 0 0 0 0 0 0 0 0 0 0 0 0 0 0
0 0 0 0 0 0 0 0 0 0 0 0 0 0 0 0 0 0 0 0 0 0 0 0 0 -0 0 0 0 0 0 0 0 0 0 0 0 0 0 0 0 0 0 0 0 0 0 0 0 0 0 0 0 0
0 0 0 0 0 0 0 0 0 0 0 0 0 0 0 0 0 0 0 0 -0 0 0 0 0 0 0 0 0 0 0 0 0 0 0 0 0 0 0 0 0 0 0 0 0 0 0 0 0 0 0 0 0 0
0 0 0 0 0 0 0 0 0 0 0 0 0 0 0 0 0 0 0 0 0 0 -0 -0 0 0 0 0 0 0 0 0 0 0 0 0 0 0 0 0 0 0 0 0 0 0 0 0 0 0 0 0 0 0
0 0 0 0 0 0 0 0 0 0 0 0 0 0 0 0 0 0 0 0 0 0 0 0 0 0 0 0 0 0 0 0 0 0 0 0 0 0 0 0 0 0 0 0 0 0 0 0 0 0 0 0 0 0
0 0 0 0 0 0 0 0 0 0 0 0 0 0 0 0 0 0 0 0 0 0 0 0 0 0 0 0 0 0 0 0 0 0 0 0 0 0 0 0 0 0 0 0 0 0 0 0 0 0 0 0 0 0
0 0 0 0 0 0 0 0 0 0 0 0 0 0 0 0 0 0 0 0 0 0 0 0 0 0 0 0 0 0 0 0 0 0 0 0 0 0 0 0 0 0 0 0 0 0 0 0 0 0 0 0 0 0
0 0 0 0 0 0 0 0 0 0 0 0 0 0 0 0 0 0 0 0 0 0 0 0 0 0 0 0 0 0 0 0 0 0 0 0 0 0 0 0 0 0 0 0 0 0 0 0 0 0 0 0 0 0
0 0 0 0 0 0 0 0 0 0 0 0 0 0 0 0 0 0 0 0 0 0 0 0 0 0 0 0 0 0 0 0 0 0 0 0 0 0 0 0 0 0 0 0 0 0 0 0 0 0 0 0 0 0
0 0 0 0 0 0 0 0 0 0 0 0 0 0 0 0 0 0 0 0 0 0 0 0 0 0 0 0 0 0 0 0 0 0 0 0 0 0 0 0 0 0 0 0 0 0 0 0 0 0 0 0 0 0
0 0 0 0 0 0 0 0 0 0 0 0 0 0 0 0 0 0 0 0 0 0 0 -0 -0 -0 0 0 0 0 0 0 0 0 0 0 0 0 0 0 0 0 0 0 0 0 0 0 0 0 0 0 0 0
0 0 0 0 0 0 0 0 0 0 0 0 0 0 0 0 0 0 0 0 -0 -0 -0 -0 -0 0 0 0 0 0 0 0 0 0 0 0 0 0 0 0 0 0 0 0 0 0 0 0 0 0 0 0 0 0
0 0 0 0 0 0 0 0 0 0 0 0 0 0 0 0 0 0 0 0 0 0 -0 -0 0 0 0 0 0 0 0 0 0 0 0 0 0 0 0 0 0 0 0 0 0 0 0 0 0 0 0 0 0 0
0 0 0 0 0 0 0 0 0 0 0 0 0 0 0 0 0 0 0 0 -0 -0 -0 -0 -0 -0 0 0 0 0 0 0 0 0 0 0 0 0 0 0 0 0 0 0 0 0 0 0 0 0 0 0 0 0
0 0 0 0 0 -0 -0 0 0 0 0 0 0 0 0 0 0 0 0 0 0 -0 -0 -0 0 0 0 0 0 0 0 0 0 0 0 0 0 0 0 0 0 0 0 0 0 0 0 0 0 0 0 0 0 0
0 0 0 0 0 0 0 0 0 -0 -0 0 0 0 0 0 0 0 0 -0 0 -0 0 -0 -0 0 0 0 0 0 0 0 0 0 0 0 0 0 0 0 -0 0 0 0 0 0 0 0 0 0 0 0 0 0
0 0 0 -0 0 0 0 -0 -0 -0 0 0 0 0 0 0 0 0 0 -0 -0 -0 -0 0 0 0 -0 -0 -0 -0 0 0 0 0 0 0 0 -0 -0 -0 0 0 0 0 0 0 0 0 0 0 0 0 0 0
0 0 0 0 0 0 0 0 -0 0 0 0 0 0 0 0 0 0 -0 0 0 0 0 0 0 0 0 0 0 0 -0 0 0 0 0 0 -0 -0 0 0 0 0 0 0 0 0 0 0 0 0 0 0 0 0
0 0 0 0 0 0 0 0 0 0 0 0 0 0 0 0 0 -0 0 0 0 0 -0 0 0 0 0 0 0 0 -0 -0 0 -0 -0 -0 -0 -0 0 0 0 0 0 0 0 0 0 0 0 0 0 0 0 0
0 0 0 0 0 0 0 0 0 0 0 0 0 0 0 0 0 0 0 0 0 -0 -0 0 0 0 -0 -0 -0 0 0 0 0 -0 0 0 -0 0 0 0 0 0 0 0 0 0 0 0 0 0 0 0 0 0
0 0 0 0 0 0 0 0 0 0 0 0 0 0 0 0 0 -0 0 0 -0 0 0 0 -0 0 0 0 0 -0 -0 0 0 0 0 0 0 0 0 0 0 0 0 0 0 0 0 0 0 0 0 0 0 0
0 0 0 0 0 0 0 0 0 0 0 0 0 0 -0 0 0 0 0 0 0 0 0 0 0 -0 0 0 0 0 0 0 0 0 0 0 0 0 0 0 0 0 0 0 0 0 0 0 0 0 0 0 0 0
0 0 0 0 0 0 0 0 0 0 0 0 0 -0 -0 0 -0 -0 -0 -0 0 0 0 0 -0 0 0 0 0 0 0 0 0 0 0 0 0 0 0 0 0 0 0 0 0 0 0 0 0 0 0 0 0 0
0 0 0 0 0 0 0 0 0 0 0 0 0 0 -0 -0 0 0 0 0 0 -0 0 -0 -0 -0 0 0 0 0 0 0 0 0 0 0 0 0 0 0 0 0 0 0 0 0 0 0 0 0 0 0 0 0
0 0 0 0 0 0 0 0 0 0 0 0 -0 -0 0 -0 -0 -0 0 0 -0 -0 0 0 0 0 0 0 0 0 0 0 0 0 0 0 0 0 0 0 0 0 0 0 0 0 0 0 0 0 0 0 0 0
0 0 0 0 0 -0 0 0 0 0 0 0 0 0 -0 -0 0 -0 -0 0 -0 -0 -0 -0 0 0 -0 -0 0 0 0 0 0 0 0 0 0 0 0 0 0 0 0 0 0 0 0 0 0 0 0 0 0 0
0 0 0 0 0 -0 -0 0 0 0 0 0 0 0 0 0 0 0 0 -0 -0 -0 -0 0 0 0 0 0 0 0 0 0 0 0 0 0 0 0 0 0 0 0 0 0 0 0 0 0 0 0 0 0 0 0
0 0 0 0 0 0 0 0 0 0 0 0 0 0 0 0 0 -0 0 -0 -0 -0 -0 0 -0 0 0 0 0 0 0 0 0 0 0 0 0 0 0 0 0 0 0 0 0 0 0 0 0 0 0 0 0 0
0 0 0 0 0 0 0 0 0 0 0 0 0 0 0 0 -0 -0 -0 -0 0 -0 -0 0 0 0 0 0 0 0 0 0 0 0 0 0 0 0 0 0 0 0 0 0 0 0 0 0 0 0 0 0 0 0
0 0 0 0 0 0 0 0 0 0 0 -0 -0 0 0 0 0 0 0 0 0 0 0 0 0 0 0 0 0 0 0 0 0 0 0 0 0 0 0 0 0 0 0 0 0 0 0 0 0 0 0 0 0 0
0 0 0 0 0 0 0 0 0 0 0 0 -0 -0 -0 0 0 0 0 0 0 0 0 0 0 0 0 0 0 0 0 0 0 0 0 0 0 0 0 0 0 0 0 0 0 0 0 0 0 0 0 0 0 0
Wind_Speed_500mb
38 36 34 33 34 33 33 34 33 33 32 31 30 29 31 32 34 26 11 6 17 15 48 55 32 21 20 10 3 11 13 3 7 4 3 4 3 2 4 2 18 11 11 9 4 4 13 30 17 12 12 21 28 44
32 35 36 35 35 34 34 34 33 32 32 32 31 30 29 30 33 37 27 22 22 32 40 43 62 63 58 55 53 22 8 2 9 1 2 3 6 6 15 10 9 4 8 4 8 11 11 22 20 25 19 12 23 25
36 35 36 37 36 35 35 35 34 33 31 32 31 32 31 29 31 37 47 39 36 24 56 35 24 13 17 31 39 27 19 23 15 13 5 3 9 7 9 10 10 11 18 8 5 10 26 38 32 28 31 37 31 18
39 38 39 40 39 37 36 36 35 34 32 32 32 32 33 33 33 37 46 46 40 16 12 20 20 38 23 21 32 51 48 28 20 18 6 6 5 12 8 8 4 6 17 7 13 19 22 36 43 33 26 32 27 21
39 38 38 40 39 38 37 37 37 35 34 33 32 31 33 36 40 36 25 17 12 11 11 36 73 43 24 33 45 61 54 64 38 7 3 6 8 6 7 4 4 11 13 10 13 30 12 7 11 14 15 11 14 19
40 39 38 38 38 37 36 36 36 36 34 34 33 32 32 35 43 35 2 2 10 10 12 9 31 51 17 32 45 47 47 53 50 24 14 17 43 12 7 7 15 42 41 36 27 32 24 9 11 23 27 15 28 35
40 41 37 38 38 37 36 36 35 36 34 34 34 34 34 34 39 28 13 7 15 24 10 16 17 19 40 29 28 53 44 45 38 27 21 25 37 13 3 9 13 19 30 26 30 20 13 26 15 32 40 36 37 40
40 37 34 34 35 34 35 35 35 35 34 35 36 38 38 38 40 40 12 9 24 34 14 6 10 19 17 12 10 33 39 38 29 31 15 15 11 13 7 18 32 27 26 20 10 14 15 8 24 39 43 54 50 49
36 32 31 32 31 34 35 33 33 33 33 32 35 35 38 24 15 4 15 15 15 20 8 8 5 8 25 28 14 8 6 6 8 9 21 11 3 2 11 19 31 34 21 17 8 7 29 38 46 44 52 47 49 48
31 29 29 31 30 31 30 29 28 30 26 20 23 8 8 4 13 20 11 9 12 16 15 12 16 10 21 20 11 20 7 1 3 6 4 8 6 25 14 16 21 26 22 5 43 35 41 47 54 50 46 43 47 45
30 29 29 29 28 27 25 22 22 28 13 13 7 9 23 23 13 11 9 13 15 9 17 18 33 21 22 9 8 14 5 2 0 8 6 3 6 6 11 17 24 23 23 26 25 37 35 41 48 50 49 47 42 32
30 30 29 28 25 21 18 15 23 23 17 16 25 33 22 7 8 8 7 8 10 10 10 8 14 30 17 20 14 12 8 6 11 13 6 10 8 28 18 20 35 36 39 44 45 52 49 46 40 38 36 31 23 18
28 27 27 25 22 17 17 16 20 22 19 3 5 7 7 8 3 8 7 7 4 23 22 35 16 11 13 24 15 8 12 12 22 5 4 6 26 22 20 25 25 37 39 40 43 42 38 37 33 28 36 39 37 34
27 26 24 23 20 18 15 14 14 16 9 3 7 9 8 8 9 1 6 7 22 18 37 34 11 9 10 6 9 8 10 8 12 13 7 5 24 23 24 27 29 40 42 43 43 45 45 41 41 37 38 37 33 27
25 23 22 22 18 15 13 10 4 9 4 8 9 9 10 20 19 28 30 26 43 35 25 20 16 12 7 12 5 6 5 7 5 6 7 27 27 28 33 39 37 41 43 44 42 41 39 34 29 27 23 20 18 18
20 21 22 15 16 15 11 8 4 5 7 9 13 10 27 24 18 26 40 35 44 29 25 8 7 7 10 5 6 5 4 6 3 6 37 36 27 29 34 36 37 40 41 38 36 33 29 23 20 18 15 13 13 13
20 25 4 6 13 13 11 8 5 10 11 11 18 29 51 45 43 51 44 50 50 27 3 7 13 17 4 7 5 7 6 4 19 30 31 31 38 36 27 28 38 38 34 30 26 23 19 21 21 18 20 15 10 12
28 13 14 12 16 18 15 11 8 11 16 26 27 47 47 48 49 53 52 46 39 27 10 7 9 5 3 4 5 6 11 35 33 34 30 32 39 30 31 36 34 31 29 26 20 22 19 12 16 19 12 14 14 12
19 17 15 15 22 13 7 11 15 12 21 32 43 54 55 55 61 53 37 48 37 21 13 16 7 5 4 9 17 28 33 40 43 40 39 33 36 38 31 25 22 21 22 19 16 12 15 14 12 15 22 13 17 13
22 22 25 15 23 8 7 9 15 15 13 14 25 43 36 41 43 30 18 35 24 9 11 8 6 10 8 19 30 37 42 45 44 38 31 33 33 27 21 14 8 6 12 16 13 13 7 7 13 21 14 18 14 11
17 25 22 15 16 20 11 10 12 15 22 15 32 31 21 25 25 12 7 10 10 8 5 10 17 19 26 35 41 43 38 30 26 29 37 34 32 27 11 19 28 26 27 25 13 11 11 13 17 12 12 11 16 14
16 21 12 11 5 7 14 18 16 21 17 25 28 15 14 6 11 6 8 15 6 3 5 16 29 37 38 31 23 18 16 16 13 22 21 19 21 18 27 20 17 23 22 18 13 12 13 12 8 7 8 13 15 20
20 13 10 10 10 10 15 15 13 11 7 9 14 7 3 7 7 10 11 6 4 15 30 37 40 32 18 17 17 15 14 17 24 30 31 28 31 22 16 13 9 10 9 10 7 7 10 9 8 10 13 16 19 23
13 13 8 9 19 11 11 11 15 12 10 6 7 10 5 2 6 8 5 5 15 34 39 42 39 19 18 16 24 18 28 26 20 24 20 19 16 13 13 22 20 17 13 11 1 3 5 11 15 19 19 22 24 23
5 10 9 13 15 11 9 7 10 7 6 4 6 6 4 3 3 3 7 12 34 42 45 39 13 19 15 19 19 30 33 20 22 25 18 13 22 26 34 30 20 12 7 2 2 2 9 15 22 26 26 20 22 21
9 9 13 10 11 10 5 7 10 9 6 8 10 9 4 2 4 3 2 24 37 45 40 40 33 9 11 14 19 16 14 18 21 20 16 9 15 19 18 12 6 9 14 2 6 9 12 16 20 19 17 20 19 20
7 10 16 17 14 15 10 7 9 9 6 6 2 5 5 4 5 5 18 31 45 44 38 34 20 11 13 13 9 11 20 22 11 9 9 9 7 3 6 4 4 5 4 9 12 16 15 16 21 20 20 27 22 23
16 11 7 10 10 7 8 7 5 4 5 12 11 5 5 5 1 10 19 42 47 44 34 22 8 15 29 19 20 21 16 13 14 13 11 13 14 10 9 10 6 4 2 5 8 10 11 18 16 19 20 21 21 24
12 11 12 7 7 8 6 5 6 5 9 9 3 1 3 7 4 9 24 53 52 35 19 22 23 24 26 24 20 11 4 8 18 17 37 28 18 12 7 4 2 5 3 5 9 13 17 19 18 20 22 22 22 21
13 16 9 6 5 6 6 7 9 13 12 7 8 18 17 15 20 44 61 47 36 29 26 22 19 20 21 22 21 18 10 9 13 13 14 7 4 4 7 11 6 8 11 11 12 12 13 15 14 15 16 14 20 25
9 9 6 5 5 8 4 11 10 16 16 14 21 28 20 23 41 41 30 23 16 11 16 6 18 18 19 36 27 24 22 16 9 3 12 22 24 21 19 8 8 13 13 11 8 13 15 16 16 17 18 21 24 27
12 11 8 3 4 10 16 16 10 23 26 29 29 40 35 15 7 9 17 15 12 8 17 29 20 13 10 7 6 13 8 3 6 17 14 12 13 10 13 10 14 14 11 3 14 16 15 16 19 23 24 25 28 33
8 15 11 9 13 11 16 14 10 10 9 14 15 25 20 10 6 8 11 13 19 26 21 18 14 12 11 9 7 2 5 5 12 17 20 15 5 5 6 5 10 13 6 2 13 20 18 18 20 23 23 26 31 36
Wind_Direction_500mb
286 289 294 298 301 305 307 308 310 312 317 320 326 332 334 336 337 345 332 311 328 270 280 279 267 229 265 280 280 338 344 323 344 18 56 105 127 351 290 188 279 201 173 218 137 144 258 177 169 172 215 297 196 202
280 285 289 292 297 301 305 305 305 307 310 314 318 323 328 329 330 328 326 327 301 267 260 280 276 265 256 251 269 271 265 167 237 223 272 150 179 172 161 230 230 146 122 356 173 225 270 179 228 223 216 230 197 199
278 283 288 291 292 297 300 301 302 303 304 308 312 315 320 322 321 319 316 330 326 296 300 277 258 284 258 246 242 230 255 239 221 214 174 263 242 141 187 234 177 223 178 168 104 234 216 215 226 244 249 247 239 219
273 273 278 287 290 293 296 298 298 298 299 301 305 310 314 315 311 309 313 311 293 275 276 283 275 280 261 220 241 220 267 250 217 186 190 191 228 211 216 242 167 168 108 213 261 285 274 244 235 262 266 254 245 231
268 271 274 281 288 291 293 295 295 295 296 298 299 306 310 311 308 313 319 318 244 226 289 292 303 289 239 231 229 233 238 220 240 264 215 232 229 187 244 321 260 164 193 184 221 237 197 220 246 208 227 198 235 258
267 271 273 275 283 288 290 292 291 293 294 295 296 300 304 307 308 329 262 224 122 54 287 295 300 295 295 234 230 233 226 218 220 213 224 235 248 210 199 225 250 223 222 242 250 269 224 239 208 189 157 140 161 159
265 270 270 266 277 284 288 291 291 292 292 294 294 294 294 296 296 293 262 274 213 301 301 297 285 281 311 296 248 230 225 211 211 213 231 247 268 256 257 250 309 293 292 278 249 213 226 225 207 172 160 161 159 147
264 268 265 263 274 283 289 291 291 291 293 296 295 290 289 287 282 284 343 250 239 252 234 267 277 297 356 347 261 215 215 212 211 209 215 202 249 214 232 4 358 7 86 97 94 166 48 98 134 147 160 156 139 130
258 262 262 266 269 279 287 290 292 294 301 302 296 297 293 277 251 194 305 301 247 231 254 242 253 282 348 8 341 358 193 148 217 174 223 205 257 59 25 359 6 8 8 302 13 166 132 142 144 154 156 151 144 136
251 257 261 267 272 278 286 292 296 307 318 317 311 290 259 201 295 292 262 220 209 211 229 244 244 261 316 339 307 350 14 277 170 233 276 147 104 94 86 58 29 20 14 103 128 108 141 136 142 140 145 143 143 138
255 261 265 269 276 279 285 291 309 313 303 329 302 268 284 304 286 213 228 199 195 230 217 242 225 242 265 219 218 226 246 196 157 249 120 185 128 157 124 86 82 61 64 81 108 135 138 133 130 125 119 115 112 111
255 259 265 269 271 271 282 289 300 309 308 293 296 297 301 289 247 231 216 216 188 222 213 205 265 220 247 219 203 211 196 154 244 136 136 177 81 122 123 99 94 96 92 98 102 108 109 109 112 114 117 117 109 88
253 257 262 264 260 258 261 282 298 307 314 329 300 288 258 254 272 235 227 257 313 353 327 331 326 266 246 231 228 188 200 202 120 107 100 43 117 116 102 104 108 105 105 106 101 100 103 102 97 90 94 90 86 80
247 256 257 259 252 253 259 284 299 335 339 279 244 250 207 227 230 6 283 274 310 296 321 317 300 273 278 263 225 209 220 126 168 165 145 113 120 120 125 121 116 108 105 98 94 93 91 88 88 87 84 84 81 77
247 249 253 252 242 246 260 268 276 321 277 262 247 244 230 253 314 282 287 295 312 305 307 324 299 226 271 251 239 278 81 99 89 128 129 148 147 135 129 121 115 106 103 99 96 92 88 83 83 82 85 85 62 46
236 253 257 245 236 235 234 215 282 261 254 245 242 275 288 299 286 301 312 306 331 305 305 239 252 247 236 239 279 59 317 82 127 108 141 147 135 133 127 118 115 113 104 98 96 92 80 80 82 77 80 71 44 21
225 245 246 211 217 210 196 185 231 233 239 243 239 251 256 270 278 290 309 318 321 324 296 316 212 222 271 189 94 354 105 50 101 109 139 146 132 129 125 114 123 113 108 105 110 105 73 84 75 74 76 75 33 39
233 237 214 208 197 190 197 200 250 253 245 243 262 274 277 279 286 293 306 315 334 325 244 286 314 81 41 101 130 106 110 120 127 129 126 126 120 116 121 123 125 116 107 104 103 91 66 74 97 86 47 10 357 41
225 208 202 191 183 170 216 222 218 259 251 256 259 267 269 279 284 290 286 325 337 343 355 335 17 49 22 65 98 125 127 126 127 128 128 126 127 132 131 128 124 114 102 108 107 86 103 100 80 42 19 36 25 29
203 195 171 168 187 242 267 240 210 257 265 235 267 261 263 263 285 263 280 342 336 21 23 22 5 3 66 121 141 133 128 128 127 126 130 132 132 129 128 125 114 150 164 142 115 99 79 57 31 16 35 11 20 67
209 220 185 162 210 231 273 273 257 252 283 273 280 302 274 285 201 193 166 303 51 37 39 30 63 90 107 117 121 119 116 109 109 121 134 140 136 127 125 113 107 116 129 135 98 92 87 43 23 38 12 58 36 33
131 123 138 199 258 254 257 242 245 285 278 266 291 239 241 209 133 112 136 56 71 79 107 112 109 107 108 111 108 97 97 115 117 147 131 146 155 146 139 139 130 116 109 104 84 72 48 54 67 57 49 21 358 343
137 172 205 220 230 245 260 240 241 255 264 271 296 261 66 73 120 139 79 78 108 142 131 128 125 122 124 123 121 126 131 108 112 144 136 127 135 143 147 149 155 160 120 108 86 56 73 74 45 15 4 352 343 340
154 183 219 227 208 256 254 226 220 251 249 258 304 324 24 100 142 81 93 115 152 147 146 139 132 121 117 111 81 92 140 145 136 98 135 137 140 147 141 142 141 140 152 171 201 56 45 16 356 346 344 339 342 348
221 223 216 244 227 225 246 234 215 216 264 206 231 216 229 212 114 127 156 161 163 159 150 147 137 108 111 148 111 87 152 149 151 143 118 98 143 140 147 147 148 137 60 17 118 342 350 337 332 333 345 355 351 345
240 225 210 236 235 234 267 307 15 337 314 249 209 157 159 154 184 201 176 176 169 157 157 156 153 152 71 184 155 143 104 152 167 143 136 179 132 131 134 140 107 43 20 4 305 320 325 324 324 338 337 335 333 341
255 250 237 237 275 311 301 258 276 286 271 301 59 163 174 225 196 154 147 165 168 171 158 162 165 113 114 132 89 100 138 148 163 142 100 108 129 163 208 216 313 323 294 266 288 319 309 311 325 323 319 325 334 342
243 264 254 314 319 278 279 283 253 276 339 338 323 29 348 352 6 184 182 177 153 163 164 168 136 121 164 150 117 121 120 114 115 151 158 139 132 144 134 136 112 71 273 275 322 323 325 344 346 340 335 340 338 333
242 252 218 253 268 268 267 271 294 308 334 351 16 8 347 1 345 177 161 157 163 168 161 137 131 133 137 142 152 171 238 171 166 114 144 146 154 129 154 197 305 11 18 6 9 6 355 347 341 340 339 339 342 338
240 243 244 238 228 255 259 258 276 314 297 237 134 112 96 78 93 137 143 148 152 145 146 161 164 193 199 199 182 178 164 179 196 201 186 162 161 225 283 304 286 298 299 301 318 329 331 335 342 342 341 342 335 338
194 195 195 228 271 302 278 121 71 64 101 115 135 129 119 126 138 147 150 145 143 154 172 194 149 168 178 191 199 189 169 171 187 240 262 257 261 276 292 249 283 295 289 310 333 336 331 337 342 340 334 339 338 333
181 179 164 138 246 166 133 135 102 111 104 103 110 120 122 113 113 177 171 178 191 249 197 182 201 192 218 212 199 226 248 170 337 353 357 325 294 259 219 248 297 295 292 286 347 337 329 339 342 339 336 335 330 330
150 169 198 230 188 209 219 186 146 144 148 164 168 170 171 153 136 164 190 231 206 196 191 188 194 213 242 253 229 282 296 327 343 352 359 8 12 187 230 42 28 18 354 272 355 338 328 330 338 330 333 332 328 330
Wind_Speed_850mb
38 36 34 33 34 33 33 34 33 33 32 31 30 29 31 32 34 26 11 6 17 15 48 55 32 21 20 10 3 11 13 3 7 4 3 4 3 2 4 2 18 11 11 9 4 4 13 30 17 12 12 21 28 44
32 35 36 35 35 34 34 34 33 32 32 32 31 30 29 30 33 37 27 22 22 32 40 43 62 63 58 55 53 22 8 2 9 1 2 3 6 6 15 10 9 4 8 4 8 11 11 22 20 25 19 12 23 25
36 35 36 37 36 35 35 35 34 33 31 32 31 32 31 29 31 37 47 39 36 24 56 35 24 13 17 31 39 27 19 23 15 13 5 3 9 7 9 10 10 11 18 8 5 10 26 38 32 28 31 37 31 18
39 38 39 40 39 37 36 36 35 34 32 32 32 32 33 33 33 37 46 46 40 16 12 20 20 38 23 21 32 51 48 28 20 18 6 6 5 12 8 8 4 6 17 7 13 19 22 36 43 33 26 32 27 21
39 38 38 40 39 38 37 37 37 35 34 33 32 31 33 36 40 36 25 17 12 11 11 36 73 43 24 33 45 61 54 64 38 7 3 6 8 6 7 4 4 11 13 10 13 30 12 7 11 14 15 11 14 19
40 39 38 38 38 37 36 36 36 36 34 34 33 32 32 35 43 35 2 2 10 10 12 9 31 51 17 32 45 47 47 53 50 24 14 17 43 12 7 7 15 42 41 36 27 32 24 9 11 23 27 15 28 35
40 41 37 38 38 37 36 36 35 36 34 34 34 34 34 34 39 28 13 7 15 24 10 16 17 19 40 29 28 53 44 45 38 27 21 25 37 13 3 9 13 19 30 26 30 20 13 26 15 32 40 36 37 40
40 37 34 34 35 34 35 35 35 35 34 35 36 38 38 38 40 40 12 9 24 34 14 6 10 19 17 12 10 33 39 38 29 31 15 15 11 13 7 18 32 27 26 20 10 14 15 8 24 39 43 54 50 49
36 32 31 32 31 34 35 33 33 33 33 32 35 35 38 24 15 4 15 15 15 20 8 8 5 8 25 28 14 8 6 6 8 9 21 11 3 2 11 19 31 34 21 17 8 7 29 38 46 44 52 47 49 48
31 29 29 31 30 31 30 29 28 30 26 20 23 8 8 4 13 20 11 9 12 16 15 12 16 10 21 20 11 20 7 1 3 6 4 8 6 25 14 16 21 26 22 5 43 35 41 47 54 50 46 43 47 45
30 29 29 29 28 27 25 22 22 28 13 13 7 9 23 23 13 11 9 13 15 9 17 18 33 21 22 9 8 14 5 2 0 8 6 3 6 6 11 17 24 23 23 26 25 37 35 41 48 50 49 47 42 32
30 30 29 28 25 21 18 15 23 23 17 16 25 33 22 7 8 8 7 8 10 10 10 8 14 30 17 20 14 12 8 6 11 13 6 10 8 28 18 20 35 36 39 44 45 52 49 46 40 38 36 31 23 18
28 27 27 25 22 17 17 16 20 22 19 3 5 7 7 8 3 8 7 7 4 23 22 35 16 11 13 24 15 8 12 12 22 5 4 6 26 22 20 25 25 37 39 40 43 42 38 37 33 28 36 39 37 34
27 26 24 23 20 18 15 14 14 16 9 3 7 9 8 8 9 1 6 7 22 18 37 34 11 9 10 6 9 8 10 8 12 13 7 5 24 23 24 27 29 40 42 43 43 45 45 41 41 37 38 37 33 27
25 23 22 22 18 15 13 10 4 9 4 8 9 9 10 20 19 28 30 26 43 35 25 20 16 12 7 12 5 6 5 7 5 6 7 27 27 28 33 39 37 41 43 44 42 41 39 34 29 27 23 20 18 18
20 21 22 15 16 15 11 8 4 5 7 9 13 10 27 24 18 26 40 35 44 29 25 8 7 7 10 5 6 5 4 6 3 6 37 36 27 29 34 36 37 40 41 38 36 33 29 23 20 18 15 13 13 13
20 25 4 6 13 13 11 8 5 10 11 11 18 29 51 45 43 51 44 50 50 27 3 7 13 17 4 7 5 7 6 4 19 30 31 31 38 36 27 28 38 38 34 30 26 23 19 21 21 18 20 15 10 12
28 13 14 12 16 18 15 11 8 11 16 26 27 47 47 48 49 53 52 46 39 27 10 7 9 5 3 4 5 6 11 35 33 34 30 32 39 30 31 36 34 31 29 26 20 22 19 12 16 19 12 14 14 12
19 17 15 15 22 13 7 11 15 12 21 32 43 54 55 55 61 53 37 48 37 21 13 16 7 5 4 9 17 28 33 40 43 40 39 33 36 38 31 25 22 21 22 19 16 12 15 14 12 15 22 13 17 13
22 22 25 15 23 8 7 9 15 15 13 14 25 43 36 41 43 30 18 35 24 9 11 8 6 10 8 19 30 37 42 45 44 38 31 33 33 27 21 14 8 6 12 16 13 13 7 7 13 21 14 18 14 11
17 25 22 15 16 20 11 10 12 15 22 15 32 31 21 25 25 12 7 10 10 8 5 10 17 19 26 35 41 43 38 30 26 29 37 34 32 27 11 19 28 26 27 25 13 11 11 13 17 12 12 11 16 14
16 21 12 11 5 7 14 18 16 21 17 25 28 15 14 6 11 6 8 15 6 3 5 16 29 37 38 31 23 18 16 16 13 22 21 19 21 18 27 20 17 23 22 18 13 12 13 12 8 7 8 13 15 20
20 13 10 10 10 10 15 15 13 11 7 9 14 7 3 7 7 10 11 6 4 15 30 37 40 32 18 17 17 15 14 17 24 30 31 28 31 22 16 13 9 10 9 10 7 7 10 9 8 10 13 16 19 23
13 13 8 9 19 11 11 11 15 12 10 6 7 10 5 2 6 8 5 5 15 34 39 42 39 19 18 16 24 18 28 26 20 24 20 19 16 13 13 22 20 17 13 11 1 3 5 11 15 19 19 22 24 23
5 10 9 13 15 11 9 7 10 7 6 4 6 6 4 3 3 3 7 12 34 42 45 39 13 19 15 19 19 30 33 20 22 25 18 13 22 26 34 30 20 12 7 2 2 2 9 15 22 26 26 20 22 21
9 9 13 10 11 10 5 7 10 9 6 8 10 9 4 2 4 3 2 24 37 45 40 40 33 9 11 14 19 16 14 18 21 20 16 9 15 19 18 12 6 9 14 2 6 9 12 16 20 19 17 20 19 20
7 10 16 17 14 15 10 7 9 9 6 6 2 5 5 4 5 5 18 31 45 44 38 34 20 11 13 13 9 11 20 22 11 9 9 9 7 3 6 4 4 5 4 9 12 16 15 16 21 20 20 27 22 23
16 11 7 10 10 7 8 7 5 4 5 12 11 5 5 5 1 10 19 42 47 44 34 22 8 15 29 19 20 21 16 13 14 13 11 13 14 10 9 10 6 4 2 5 8 10 11 18 16 19 20 21 21 24
12 11 12 7 7 8 6 5 6 5 9 9 3 1 3 7 4 9 24 53 52 35 19 22 23 24 26 24 20 11 4 8 18 17 37 28 18 12 7 4 2 5 3 5 9 13 17 19 18 20 22 22 22 21
13 16 9 6 5 6 6 7 9 13 12 7 8 18 17 15 20 44 61 47 36 29 26 22 19 20 21 22 21 18 10 9 13 13 14 7 4 4 7 11 6 8 11 11 12 12 13 15 14 15 16 14 20 25
9 9 6 5 5 8 4 11 10 16 16 14 21 28 20 23 41 41 30 23 16 11 16 6 18 18 19 36 27 24 22 16 9 3 12 22 24 21 19 8 8 13 13 11 8 13 15 16 16 17 18 21 24 27
12 11 8 3 4 10 16 16 10 23 26 29 29 40 35 15 7 9 17 15 12 8 17 29 20 13 10 7 6 13 8 3 6 17 14 12 13 10 13 10 14 14 11 3 14 16 15 16 19 23 24 25 28 33
8 15 11 9 13 11 16 14 10 10 9 14 15 25 20 10 6 8 11 13 19 26 21 18 14 12 11 9 7 2 5 5 12 17 20 15 5 5 6 5 10 13 6 2 13 20 18 18 20 23 23 26 31 36
Wind_Direction_850mb
286 289 294 298 301 305 307 308 310 312 317 320 326 332 334 336 337 345 332 311 328 270 280 279 267 229 265 280 280 338 344 323 344 18 56 105 127 351 290 188 279 201 173 218 137 144 258 177 169 172 215 297 196 202
280 285 289 292 297 301 305 305 305 307 310 314 318 323 328 329 330 328 326 327 301 267 260 280 276 265 256 251 269 271 265 167 237 223 272 150 179 172 161 230 230 146 122 356 173 225 270 179 228 223 216 230 197 199
278 283 288 291 292 297 300 301 302 303 304 308 312 315 320 322 321 319 316 330 326 296 300 277 258 284 258 246 242 230 255 239 221 214 174 263 242 141 187 234 177 223 178 168 104 234 216 215 226 244 249 247 239 219
273 273 278 287 290 293 296 298 298 298 299 301 305 310 314 315 311 309 313 311 293 275 276 283 275 280 261 220 241 220 267 250 217 186 190 191 228 211 216 242 167 168 108 213 261 285 274 244 235 262 266 254 245 231
268 271 274 281 288 291 293 295 295 295 296 298 299 306 310 311 308 313 319 318 244 226 289 292 303 289 239 231 229 233 238 220 240 264 215 232 229 187 244 321 260 164 193 184 221 237 197 220 246 208 227 198 235 258
267 271 273 275 283 288 290 292 291 293 294 295 296 300 304 307 308 329 262 224 122 54 287 295 300 295 295 234 230 233 226 218 220 213 224 235 248 210 199 225 250 223 222 242 250 269 224 239 208 189 157 140 161 159
265 270 270 266 277 284 288 291 291 292 292 294 294 294 294 296 296 293 262 274 213 301 301 297 285 281 311 296 248 230 225 211 211 213 231 247 268 256 257 250 309 293 292 278 249 213 226 225 207 172 160 161 159 147
264 268 265 263 274 283 289 291 291 291 293 296 295 290 289 287 282 284 343 250 239 252 234 267 277 297 356 347 261 215 215 212 211 209 215 202 249 214 232 4 358 7 86 97 94 166 48 98 134 147 160 156 139 130
258 262 262 266 269 279 287 290 292 294 301 302 296 297 293 277 251 194 305 301 247 231 254 242 253 282 348 8 341 358 193 148 217 174 223 205 257 59 25 359 6 8 8 302 13 166 132 142 144 154 156 151 144 136
251 257 261 267 272 278 286 292 296 307 318 317 311 290 259 201 295 292 262 220 209 211 229 244 244 261 316 339 307 350 14 277 170 233 276 147 104 94 86 58 29 20 14 103 128 108 141 136 142 140 145 143 143 138
255 261 265 269 276 279 285 291 309 313 303 329 302 268 284 304 286 213 228 199 195 230 217 242 225 242 265 219 218 226 246 196 157 249 120 185 128 157 124 86 82 61 64 81 108 135 138 133 130 125 119 115 112 111
255 259 265 269 271 271 282 289 300 309 308 293 296 297 301 289 247 231 216 216 188 222 213 205 265 220 247 219 203 211 196 154 244 136 136 177 81 122 123 99 94 96 92 98 102 108 109 109 112 114 117 117 109 88
253 257 262 264 260 258 261 282 298 307 314 329 300 288 258 254 272 235 227 257 313 353 327 331 326 266 246 231 228 188 200 202 120 107 100 43 117 116 102 104 108 105 105 106 101 100 103 102 97 90 94 90 86 80
247 256 257 259 252 253 259 284 299 335 339 279 244 250 207 227 230 6 283 274 310 296 321 317 300 273 278 263 225 209 220 126 168 165 145 113 120 120 125 121 116 108 105 98 94 93 91 88 88 87 84 84 81 77
247 249 253 252 242 246 260 268 276 321 277 262 247 244 230 253 314 282 287 295 312 305 307 324 299 226 271 251 239 278 81 99 89 128 129 148 147 135 129 121 115 106 103 99 96 92 88 83 83 82 85 85 62 46
236 253 257 245 236 235 234 215 282 261 254 245 242 275 288 299 286 301 312 306 331 305 305 239 252 247 236 239 279 59 317 82 127 108 141 147 135 133 127 118 115 113 104 98 96 92 80 80 82 77 80 71 44 21
225 245 246 211 217 210 196 185 231 233 239 243 239 251 256 270 278 290 309 318 321 324 296 316 212 222 271 189 94 354 105 50 101 109 139 146 132 129 125 114 123 113 108 105 110 105 73 84 75 74 76 75 33 39
233 237 214 208 197 190 197 200 250 253 245 243 262 274 277 279 286 293 306 315 334 325 244 286 314 81 41 101 130 106 110 120 127 129 126 126 120 116 121 123 125 116 107 104 103 91 66 74 97 86 47 10 357 41
225 208 202 191 183 170 216 222 218 259 251 256 259 267 269 279 284 290 286 325 337 343 355 335 17 49 22 65 98 125 127 126 127 128 128 126 127 132 131 128 124 114 102 108 107 86 103 100 80 42 19 36 25 29
203 195 171 168 187 242 267 240 210 257 265 235 267 261 263 263 285 263 280 342 336 21 23 22 5 3 66 121 141 133 128 128 127 126 130 132 132 129 128 125 114 150 164 142 115 99 79 57 31 16 35 11 20 67
209 220 185 162 210 231 273 273 257 252 283 273 280 302 274 285 201 193 166 303 51 37 39 30 63 90 107 117 121 119 116 109 109 121 134 140 136 127 125 113 107 116 129 135 98 92 87 43 23 38 12 58 36 33
131 123 138 199 258 254 257 242 245 285 278 266 291 239 241 209 133 112 136 56 71 79 107 112 109 107 108 111 108 97 97 115 117 147 131 146 155 146 139 139 130 116 109 104 84 72 48 54 67 57 49 21 358 343
137 172 205 220 230 245 260 240 241 255 264 271 296 261 66 73 120 139 79 78 108 142 131 128 125 122 124 123 121 126 131 108 112 144 136 127 135 143 147 149 155 160 120 108 86 56 73 74 45 15 4 352 343 340
154 183 219 227 208 256 254 226 220 251 249 258 304 324 24 100 142 81 93 115 152 147 146 139 132 121 117 111 81 92 140 145 136 98 135 137 140 147 141 142 141 140 152 171 201 56 45 16 356 346 344 339 342 348
221 223 216 244 227 225 246 234 215 216 264 206 231 216 229 212 114 127 156 161 163 159 150 147 137 108 111 148 111 87 152 149 151 143 118 98 143 140 147 147 148 137 60 17 118 342 350 337 332 333 345 355 351 345
240 225 210 236 235 234 267 307 15 337 314 249 209 157 159 154 184 201 176 176 169 157 157 156 153 152 71 184 155 143 104 152 167 143 136 179 132 131 134 140 107 43 20 4 305 320 325 324 324 338 337 335 333 341
255 250 237 237 275 311 301 258 276 286 271 301 59 163 174 225 196 154 147 165 168 171 158 162 165 113 114 132 89 100 138 148 163 142 100 108 129 163 208 216 313 323 294 266 288 319 309 311 325 323 319 325 334 342
243 264 254 314 319 278 279 283 253 276 339 338 323 29 348 352 6 184 182 177 153 163 164 168 136 121 164 150 117 121 120 114 115 151 158 139 132 144 134 136 112 71 273 275 322 323 325 344 346 340 335 340 338 333
242 252 218 253 268 268 267 271 294 308 334 351 16 8 347 1 345 177 161 157 163 168 161 137 131 133 137 142 152 171 238 171 166 114 144 146 154 129 154 197 305 11 18 6 9 6 355 347 341 340 339 339 342 338
240 243 244 238 228 255 259 258 276 314 297 237 134 112 96 78 93 137 143 148 152 145 146 161 164 193 199 199 182 178 164 179 196 201 186 162 161 225 283 304 286 298 299 301 318 329 331 335 342 342 341 342 335 338
194 195 195 228 271 302 278 121 71 64 101 115 135 129 119 126 138 147 150 145 143 154 172 194 149 168 178 191 199 189 169 171 187 240 262 257 261 276 292 249 283 295 289 310 333 336 331 337 342 340 334 339 338 333
181 179 164 138 246 166 133 135 102 111 104 103 110 120 122 113 113 177 171 178 191 249 197 182 201 192 218 212 199 226 248 170 337 353 357 325 294 259 219 248 297 295 292 286 347 337 329 339 342 339 336 335 330 330
150 169 198 230 188 209 219 186 146 144 148 164 168 170 171 153 136 164 190 231 206 196 191 188 194 213 242 253 229 282 296 327 343 352 359 8 12 187 230 42 28 18 354 272 355 338 328 330 338 330 333 332 328 330